Regional Weather Roundup
Issued by NWS

Home | Current Version | Previous Version | Graphics & Text | Print | Product List | Glossary On
Versions: 1 2 3 4 5 6 7 8 9 10 11 12 13 14 15 16 17 18 19 20 21 22 23 24 25 26 27 28 29 30 31 32 33 34 35 36 37 38 39 40 41 42 43 44 45 46 47 48 49 50
000
ASUS45 KPSR 180910
RWRAZ

ARIZONA REGIONAL HOURLY WEATHER ROUNDUP
NATIONAL WEATHER SERVICE PHOENIX AZ
200 AM MST THU SEP 18 2014

NOTE: FAIR INDICATES FEW OR NO CLOUDS BELOW 12,000 FEET WITH NO
SIGNIFICANT WEATHER AND/OR OBSTRUCTIONS TO VISIBILITY.

AZZ001>003-036-181000-
NORTHWEST ARIZONA

CITY           SKY/WX    TMP DP  RH WIND       PRES   REMARKS
BULLHEAD CITY  CLEAR     84  68  58 CALM      29.74S
KINGMAN        CLEAR     68  61  78 SE9       29.92S
$$

AZZ004>008-015-016-018-181000-
NORTH CENTRAL ARIZONA

CITY           SKY/WX    TMP DP  RH WIND       PRES   REMARKS
GRAND CANYON   CLEAR     48  45  89 CALM      30.14S
PRESCOTT       CLEAR     59  53  80 CALM      30.03S
FLAGSTAFF      CLEAR     49  47  93 CALM      30.15F
PAYSON         CLEAR     59  55  88 CALM      30.04S
PAGE           CLEAR     71  52  50 SW3       29.97S
$$

AZZ009>014-017-181000-
NORTHEAST ARIZONA

CITY           SKY/WX    TMP DP  RH WIND       PRES   REMARKS
WINSLOW        CLEAR     58  57  97 CALM      30.02F
SAINT JOHNS    CLEAR     59  54  83 E6        30.05F
WINDOW ROCK    CLEAR     48  42  80 CALM      30.16F
SHOW LOW       CLEAR     50  50 100 CALM      30.11S FOG
$$

AZZ023-181000-
GREATER PHOENIX AREA

CITY           SKY/WX    TMP DP  RH WIND       PRES   REMARKS
PHOENIX        PTCLDY    80  65  59 E6        29.74S
BUCKEYE          N/A     75  73  94 N6        29.76S
LUKE AFB       CLEAR     78  69  73 NW3       29.75S
DEER VALLEY    CLEAR     80  63  55 NE7       29.77S
SCOTTSDALE     CLEAR     80  64  58 NE3       29.79S
MESA-GATEWAY   CLEAR    N/A N/A N/A NE7       29.78S
$$

AZZ027-028-181000-
SOUTHWEST MARICOPA COUNTY AND PINAL COUNTY

CITY           SKY/WX    TMP DP  RH WIND       PRES   REMARKS
CASA GRANDE    CLEAR     79  61  53 NE10      29.77S
$$

AZZ503-504-507>509-181000-
SOUTHEAST ARIZONA

CITY           SKY/WX    TMP DP  RH WIND       PRES   REMARKS
TUCSON         CLOUDY    73  67  81 S6        29.84S
DAVIS-MONTHAN  DRIZZLE   72  68  88 E7        29.82S
NOGALES        RAIN      66  65  96 SW5       29.89S FOG
SIERRA VISTA   LGT RAIN  64  64 100 CALM      29.93F FOG
DOUGLAS        HVY RAIN  65  64  97 SE10      29.93F FOG
SAFFORD        LGT RAIN  65  64  97 SE8       29.92S FOG
$$

AZZ020-021-025-026-031-181000-
SOUTHWEST ARIZONA

CITY           SKY/WX    TMP DP  RH WIND       PRES   REMARKS
YUMA           PTCLDY    88  69  53 SE6       29.70S
$$

CAZ031-033-041-043-047-048-061-181000-
SOUTHERN CALIFORNIA

CITY           SKY/WX    TMP DP  RH WIND       PRES   REMARKS
DOWNTOWN L.A.  CLEAR     70  59  68 CALM      29.79S
L.A. AIRPORT   CLEAR     68  60  75 SE6       29.79S
SAN DIEGO      CLEAR     74  67  78 NW3       29.82S
BURBANK        CLEAR     73  56  54 SE7       29.80S
ONTARIO        CLEAR     73  60  63 W5        29.81F
RIVERSIDE      CLEAR     73  60  63 W3        29.81F
PALM SPRINGS   CLEAR     88  61  40 CALM      29.72S
EL CENTRO NAS  CLEAR     88  64  44 S3        29.66S
IMPERIAL       CLEAR     90  64  42 SE5       29.66S
BLYTHE         CLEAR     86  69  56 S5        29.70S
NEEDLES        CLEAR     87  67  51 CALM      29.74S
$$

NVZ020-UTZ003-181000-
SOUTHERN NEVADA-UTAH

CITY           SKY/WX    TMP DP  RH WIND       PRES   REMARKS
LAS VEGAS      CLEAR     84  59  42 S8        29.76S
SALT LAKE CITY PTCLDY    71  45  39 SE12      29.89S
$$

NMZ009-TXZ055-181000-
NEW MEXICO-WEST TEXAS

CITY           SKY/WX    TMP DP  RH WIND       PRES   REMARKS
ALBUQUERQUE    CLOUDY    63  56  78 N6        30.09S
EL PASO        CLOUDY    67  63  87 N10       29.99S
$$


........................KEY........................
SKY/WX - SKY CONDITION/WEATHER
TMP    - TEMPERATURE IN FAHRENHEIT
DP     - DEW POINT IN FAHRENHEIT
RH     - RELATIVE HUMIDITY IN PERCENT
WIND   - DIRECTION AND SPEED IN MILES PER HOUR (MPH)
VRB    - VARIABLE WIND DIRECTION
PRES   - MEAN SEA LEVEL PRESSURE IN INCHES OF MERCURY
         F - FALLING PRESSURE   R - RISING PRESSURE
         S - STEADY PRESSURE
VSB    - VISIBILITY IN MILES
HX     - HEAT INDEX IN FAHRENHEIT
WCI    - WIND CHILL INDEX IN FAHRENHEIT
TC     - TEMPERATURE IN CELSIUS WHICH IS ALSO KNOWN AS
         TEMPERATURE IN CENTIGRADE
AFB    - AIR FORCE BASE
         LUKE AFB IS LUKE AIR FORCE BASE
         DAVIS-MONTHAN IS DAVIS-MONTHAN AIR FORCE BASE
NAS    - NAVAL AIR STATION
         EL CENTRO NAS IS EL CENTRO NAVAL AIR STATION
N/A    - NOT AVAILABLE



USA.gov is the U.S. government's official web portal to all federal, state and local government web resources and services.